PDT,Max TemperatureF,Mean TemperatureF,Min TemperatureF,Max Dew PointF,MeanDew PointF,Min DewpointF,Max Humidity, Mean Humidity, Min Humidity, Max Sea Level PressureIn, Mean Sea Level PressureIn, Min Sea Level PressureIn, Max VisibilityMiles, Mean VisibilityMiles, Min VisibilityMiles, Max Wind SpeedMPH, Mean Wind SpeedMPH, Max Gust SpeedMPH,PrecipitationIn, CloudCover, Events, WindDirDegrees
2013-5-1,57,40,23,25,21,18,62,35,18,30.56,30.52,30.40,10,10,10,12,7,16,0.00,0,,113
2013-5-2,66,48,29,32,28,24,63,35,18,30.57,30.42,30.24,10,10,10,10,5,,0.00,0,,46
2013-5-3,68,57,46,34,31,26,56,32,15,30.33,30.23,30.13,10,10,10,17,7,18,0.00,0,,283
2013-5-4,70,58,45,37,33,30,47,32,17,30.27,30.15,30.03,10,10,10,15,8,21,T,2,,331
2013-5-5,75,59,43,36,30,21,59,32,10,30.04,29.93,29.81,10,10,10,14,6,18,0.00,0,,353
2013-5-6,87,69,50,35,31,22,50,30,9,29.90,29.80,29.68,10,10,10,16,7,23,0.00,0,,287
2013-5-7,82,62,42,46,38,33,46,29,16,29.84,29.78,29.73,10,10,10,12,5,,0.00,0,,273
2013-5-8,90,74,58,47,44,37,60,38,16,29.97,29.90,29.84,10,10,10,21,8,28,0.00,0,,280
2013-5-9,82,66,49,44,36,19,53,29,8,30.06,30.00,29.94,10,10,10,15,8,,0.00,0,,270
2013-5-10,84,67,49,43,37,30,51,27,11,30.12,30.06,29.99,10,10,10,15,9,20,0.00,0,,293
2013-5-11,82,66,50,45,41,37,46,30,18,30.08,30.02,29.92,10,10,10,12,8,,0.00,0,,294
2013-5-12,73,64,55,50,45,43,52,41,30,29.99,29.95,29.93,10,10,10,20,8,21,0.00,2,,298
2013-5-13,69,56,43,47,40,30,62,47,32,30.11,29.95,29.84,10,10,9,32,10,40,0.02,4,Rain,284
2013-5-14,59,48,37,33,29,24,62,39,22,30.16,30.10,30.02,10,10,10,16,8,,0.00,0,,317
2013-5-15,63,48,33,41,34,28,57,40,25,30.07,29.98,29.90,10,10,10,15,6,,0.02,2,,6
2013-5-16,61,52,43,42,39,36,59,47,29,29.94,29.89,29.81,10,10,10,12,9,,0.03,6,Rain,308
2013-5-17,66,52,37,47,42,36,53,51,40,29.94,29.88,29.86,10,10,10,16,9,29,0.00,4,Rain-Thunderstorm,291
2013-5-18,69,60,51,37,35,32,59,43,27,30.16,30.01,29.94,10,10,10,23,13,29,0.00,4,,301
2013-5-19,75,62,49,37,35,31,56,39,22,30.25,30.21,30.16,10,10,10,25,11,31,0.00,0,,302
2013-5-20,70,54,38,41,38,36,68,40,24,30.26,30.06,29.79,10,10,6,14,10,18,0.00,0,,116
2013-5-21,72,54,35,48,43,34,88,68,43,29.76,29.69,29.63,10,9,2,14,7,,0.27,5,Rain-Thunderstorm,304
2013-5-22,48,41,33,41,39,37,89,81,66,29.97,29.84,29.76,10,7,2,9,5,,0.13,8,Rain,284
2013-5-23,60,52,44,41,38,35,89,66,43,30.01,29.98,29.95,10,10,10,17,5,21,T,7,Rain,144
2013-5-24,54,42,30,43,39,35,82,63,41,29.98,29.96,29.94,10,10,10,21,5,25,0.03,5,,287
2013-5-25,63,48,33,41,38,35,71,52,35,29.99,29.96,29.93,10,10,10,9,5,30,0.00,3,,308
2013-5-26,68,52,35,44,42,41,74,59,42,29.96,29.93,29.89,10,10,10,15,6,,T,6,Rain,291
2013-5-27,64,57,49,49,44,37,89,71,42,29.91,29.82,29.77,10,10,10,15,6,23,0.10,5,Rain,107
2013-5-28,69,60,51,49,44,39,89,63,37,29.81,29.77,29.72,10,10,10,15,5,29,0.01,6,,293
2013-5-29,59,50,41,49,43,37,90,64,41,29.87,29.72,29.65,10,10,7,14,7,,0.05,4,Rain,303
2013-5-30,63,52,41,37,33,28,64,42,24,30.14,30.00,29.89,10,10,10,21,13,28,T,1,,306
2013-5-31,66,50,34,37,34,30,66,39,24,30.25,30.20,30.15,10,10,10,15,9,,0.00,0,,321